[[{"header":{"parameterUnit":"m.s-1","parameterCategory":1,"la1":30.2991,"la2":30.254,"lo1":-89.0895,"lo2":-89.0444,"dy":0.0017,"dx":0.0017,"nx":28,"ny":28,"refTime":"2024-06-01T09:00:00:Z","depth":0,"parameterNumber":2,"parameterNumberName":"U-component_of_WINDS"},"data":[0,0,0,0,0,0,0,0,0,0,0,0,0,0,0,0,0,0,0,0,0,0,0,0,0,0,0,0,0,0,0,0,0,0,0,0,0,0,0,0,0,0,0,0,0,0,0,0,0,0,0,0,0,0,0,0,0,0,-2.1628,-2.1628,0,-2.1611,-2.1611,-2.1611,-2.1556,-2.1554,-2.1553,-2.1552,-2.1536,-2.1537,-2.1537,0,0,0,0,0,0,0,0,0,0,0,0,0,-2.1614,-2.1614,-2.1628,-2.1628,-2.1627,-2.1611,-2.1611,-2.1611,-2.1556,-2.1554,-2.1553,-2.1551,-2.1536,-2.1537,-2.1537,0,0,0,0,0,0,0,0,0,0,0,0,0,-2.1611,-2.1614,-2.1628,-2.1598,-2.1595,-2.1611,-2.1611,-2.1611,-2.1556,-2.1554,-2.1552,-2.1551,-2.1535,-2.1536,-2.1538,-2.1581,0,0,-2.1541,-2.1541,0,0,0,0,0,0,0,0,-2.1611,-2.1611,-2.1603,-2.16,-2.1597,-2.1584,-2.16,-2.1601,-2.1557,-2.1571,-2.1552,-2.155,-2.1553,-2.1553,-2.1554,-2.1581,-2.158,-2.1541,-2.1542,-2.1542,-2.1542,0,0,0,0,0,0,0,-2.1611,-2.1612,-2.1621,-2.1603,-2.1599,-2.1586,-2.1584,-2.16,-2.1573,-2.157,-2.1566,-2.1564,-2.1551,-2.1553,-2.1553,-2.158,-2.1541,-2.1542,-2.1543,-2.1543,-2.1643,-2.1645,0,0,0,0,0,0,-2.1615,-2.1612,-2.1622,-2.1621,-2.1599,-2.1588,-2.1585,-2.159,-2.1572,-2.1568,-2.1566,-2.1562,-2.1552,-2.1552,-2.1552,-2.1603,-2.1542,-2.1543,-2.1544,-2.1641,-2.1643,-2.1645,0,0,0,0,0,0,-2.1615,-2.1617,-2.1622,-2.1615,-2.1615,-2.159,-2.1596,-2.159,-2.1592,-2.157,-2.1565,-2.1572,-2.1551,-2.1551,-2.1575,-2.1601,-2.1544,-2.1545,-2.1638,-2.1642,-2.1644,-2.1704,0,0,0,0,0,0,-2.1615,-2.1617,-2.1633,-2.1616,-2.1616,-2.1645,-2.1597,-2.1591,-2.1594,-2.1588,-2.1574,-2.157,-2.1549,-2.1573,-2.1576,-2.1602,-2.1545,-2.1636,-2.164,-2.1643,-2.1699,-2.1709,-2.1716,0,0,0,0,0,-2.1615,-2.165,-2.1634,-2.1635,-2.1635,-2.1646,-2.1646,-2.1621,-2.1596,-2.1612,-2.1598,-2.1571,-2.1598,-2.1576,-2.1579,-2.1605,-2.1634,-2.1639,-2.1643,-2.1696,-2.1707,-2.1716,0,0,0,0,0,0,-2.1671,-2.1647,-2.1629,-2.166,-2.1656,-2.1637,-2.1656,-2.1633,-2.1636,-2.163,-2.1599,-2.1597,-2.1625,-2.1618,-2.1594,-2.1647,-2.1612,-2.1617,-2.1651,-2.1661,-2.167,-2.1671,-2.1546,0,0,0,0,0,-2.1687,-2.1698,-2.1677,-2.1706,-2.1705,-2.1681,-2.1685,-2.1666,-2.1661,-2.1658,-2.1646,-2.1642,-2.165,-2.1655,-2.1661,-2.1699,-2.1695,-2.1718,-2.1727,-2.1734,-2.1739,-2.1758,-2.1769,-2.166,-2.166,-2.166,0,0,-2.172,-2.1708,-2.1717,-2.1717,-2.1711,-2.1724,-2.168,-2.1695,-2.1704,-2.1661,-2.1682,-2.1674,-2.1667,-2.1698,-2.1711,-2.1693,-2.1768,-2.174,-2.1746,-2.1746,-2.1764,-2.1774,-2.1784,-2.1663,-2.1663,-2.1662,0,0,-2.1786,-2.1779,-2.1802,-2.1798,-2.179,-2.1774,-2.178,-2.1765,-2.1758,-2.1779,-2.1747,-2.1758,-2.1772,-2.1769,-2.1769,-2.1836,-2.1811,-2.1839,-2.1883,-2.1903,-2.1912,-2.1919,-2.1943,-2.1952,-2.1844,-2.1844,-2.1844,0,-2.1828,-2.1845,-2.1818,-2.1835,-2.1836,-2.1798,-2.1823,-2.182,-2.1814,-2.1816,-2.1796,-2.1813,-2.1806,-2.1836,-2.1853,-2.1854,-2.186,-2.184,-2.1913,-2.192,-2.1926,-2.1949,-2.1958,-2.1848,-2.1847,-2.1847,-2.1847,0,-2.1897,-2.1909,-2.193,-2.1926,-2.1929,-2.195,-2.1927,-2.1934,-2.1916,-2.1903,-2.1926,-2.1916,-2.192,-2.1926,-2.1907,-2.1954,-2.1942,-2.1918,-2.1881,-2.194,-2.1961,-2.197,-2.1853,-2.1851,-2.185,-2.1849,0,0,-2.1996,-2.1978,-2.1986,-2.1984,-2.1973,-2.1982,-2.2002,-2.2006,-2.2013,-2.2011,-2.2027,-2.2041,-2.2018,-2.2019,-2.2,-2.2018,-2.2072,-2.1991,-2.199,-2.2006,-2.2123,-2.2141,-2.2151,-2.2056,-2.2057,-2.2059,-2.2123,0,-2.2059,-2.2091,-2.2068,-2.2104,-2.2115,-2.2081,-2.2098,-2.2094,-2.2082,-2.2091,-2.2079,-2.2089,-2.2058,-2.2058,-2.2074,-2.2062,-2.2095,-2.2057,-2.207,-2.2071,-2.2072,-2.2162,-2.2181,-2.2242,-2.2131,-2.2132,-2.2133,0,-2.2136,-2.2138,-2.2175,-2.2163,-2.2167,-2.2183,-2.2185,-2.2193,-2.2189,-2.2179,-2.2181,-2.2158,-2.2177,-2.2142,-2.2169,-2.2143,-2.2148,-2.2143,-2.2145,-2.2144,-2.2105,-2.2164,-2.2261,-2.227,-2.2146,-2.2145,-2.2144,0,-2.2205,-2.2217,-2.224,-2.224,-2.2226,-2.2239,-2.2234,-2.2227,-2.2231,-2.2233,-2.2235,-2.224,-2.2242,-2.2247,-2.2226,-2.2203,-2.2256,-2.2219,-2.2249,-2.2249,-2.2261,-2.226,-2.236,-2.2265,-2.2265,-2.2264,-2.2264,0,-2.2277,-2.2301,-2.2271,-2.2286,-2.2312,-2.2286,-2.2314,-2.2305,-2.23,-2.2313,-2.2283,-2.2296,-2.2268,-2.2279,-2.2263,-2.2288,-2.2289,-2.2282,-2.2278,-2.2285,-2.2286,-2.2287,-2.2282,-2.2267,-2.2266,-2.2266,-2.2265,0,-2.2357,-2.2338,-2.2362,-2.2348,-2.2345,-2.2365,-2.2353,-2.2367,-2.2354,-2.2371,-2.2374,-2.2354,-2.2365,-2.2345,-2.2353,-2.2343,-2.2377,-2.2366,-2.2379,-2.2375,-2.2406,-2.2404,-2.251,-2.2522,-2.242,-2.2421,-2.2422,0,-2.2404,-2.2422,-2.241,-2.2417,-2.2413,-2.2424,-2.2428,-2.2404,-2.241,-2.2406,-2.2421,-2.2429,-2.2434,-2.2453,-2.244,-2.2447,-2.2435,-2.2472,-2.2436,-2.2443,-2.2436,-2.2435,-2.2437,-2.2479,-2.2481,-2.2482,-2.2482,0,-2.249,-2.248,-2.2487,-2.2491,-2.2497,-2.2499,-2.2499,-2.2506,-2.2481,-2.2489,-2.2499,-2.2504,-2.2513,-2.2521,-2.2525,-2.252,-2.2498,-2.2494,-2.2501,-2.2508,-2.2515,-2.2512,-2.2399,-2.2492,-2.2491,-2.249,-2.2489,-2.2489,-2.2555,-2.2569,-2.2563,-2.2572,-2.257,-2.2571,-2.2583,-2.2573,-2.2581,-2.2586,-2.2572,-2.2586,-2.2582,-2.2584,-2.2582,-2.2594,-2.2577,-2.2588,-2.259,-2.2593,-2.2598,-2.2514,-2.2594,-2.2594,-2.2594,-2.2594,-2.2593,0,-2.2639,-2.2633,-2.2642,-2.2643,-2.2651,-2.2629,-2.2628,-2.2636,-2.2649,-2.2647,-2.2653,-2.2666,-2.2675,-2.2663,-2.267,-2.2681,-2.2671,-2.2684,-2.2683,-2.2682,-2.2612,-2.2605,-2.2692,-2.2692,-2.2692,-2.2692,-2.2692,-2.2692,-2.2683,-2.2707,-2.2697,-2.2719,-2.2714,-2.2727,-2.2729,-2.273,-2.2728,-2.2744,-2.2751,-2.2744,-2.2738,-2.2744,-2.2752,-2.2748,-2.2752,-2.2769,-2.2762,-2.2697,-2.2687,-2.2678,-2.2671,-2.277,-2.277,-2.283,-2.2831,-2.2831]},{"header":{"parameterUnit":"m.s-1","parameterCategory":1,"la1":30.2991,"la2":30.254,"lo1":-89.0895,"lo2":-89.0444,"dy":0.0017,"dx":0.0017,"nx":28,"ny":28,"refTime":"2024-06-01T09:00:00:Z","depth":0,"parameterNumber":3,"parameterNumberName":"V-component_of_WINDS"},"data":[0,0,0,0,0,0,0,0,0,0,0,0,0,0,0,0,0,0,0,0,0,0,0,0,0,0,0,0,0,0,0,0,0,0,0,0,0,0,0,0,0,0,0,0,0,0,0,0,0,0,0,0,0,0,0,0,0,0,4.4694,4.4694,0,4.4688,4.4688,4.4688,4.4676,4.4675,4.4675,4.4675,4.4667,4.4667,4.4667,0,0,0,0,0,0,0,0,0,0,0,0,0,4.4695,4.4695,4.4694,4.4694,4.4694,4.4688,4.4688,4.4688,4.4676,4.4675,4.4675,4.4675,4.4667,4.4667,4.4667,0,0,0,0,0,0,0,0,0,0,0,0,0,4.4692,4.4695,4.4694,4.4687,4.4687,4.4688,4.4688,4.4688,4.4676,4.4675,4.4675,4.4675,4.4667,4.4667,4.4667,4.4674,0,0,4.4667,4.4667,0,0,0,0,0,0,0,0,4.4693,4.4692,4.4688,4.4688,4.4687,4.4682,4.4685,4.4683,4.4676,4.468,4.4675,4.4675,4.4672,4.4672,4.4671,4.4674,4.4673,4.4667,4.4667,4.4667,4.4667,0,0,0,0,0,0,0,4.4693,4.4693,4.4692,4.4688,4.4687,4.4684,4.4684,4.4685,4.4678,4.4679,4.4679,4.4678,4.4672,4.4671,4.4671,4.4673,4.4667,4.4667,4.4667,4.4667,4.4682,4.4682,0,0,0,0,0,0,4.4694,4.4693,4.4692,4.4691,4.4689,4.4685,4.4684,4.4684,4.4678,4.4677,4.4678,4.4677,4.4672,4.4671,4.4671,4.4679,4.4667,4.4667,4.4667,4.4681,4.4682,4.4682,0,0,0,0,0,0,4.4694,4.4694,4.4692,4.4692,4.4691,4.4685,4.4685,4.4684,4.4684,4.4677,4.4676,4.4679,4.4671,4.4671,4.4674,4.4678,4.4667,4.4667,4.4681,4.4681,4.4682,4.4695,0,0,0,0,0,0,4.4694,4.4694,4.4697,4.4692,4.4691,4.4695,4.4686,4.4684,4.4684,4.4683,4.4678,4.4676,4.4671,4.4674,4.4674,4.4678,4.4667,4.468,4.4681,4.4682,4.4694,4.4696,4.4697,0,0,0,0,0,4.4694,4.47,4.4697,4.4697,4.4695,4.4695,4.4695,4.4689,4.4684,4.4687,4.4683,4.4677,4.4678,4.4674,4.4674,4.4679,4.468,4.4681,4.4682,4.4693,4.4695,4.4697,0,0,0,0,0,0,4.4705,4.47,4.4696,4.47,4.4699,4.4693,4.4696,4.4691,4.469,4.4689,4.4682,4.4681,4.4684,4.4682,4.4678,4.4685,4.4678,4.4679,4.4687,4.4689,4.469,4.4691,4.4667,0,0,0,0,0,4.4708,4.471,4.4704,4.4709,4.4708,4.4703,4.4703,4.4698,4.4696,4.4695,4.4691,4.4689,4.4689,4.4689,4.4688,4.4694,4.4692,4.4697,4.4698,4.47,4.47,4.4703,4.4705,4.4685,4.4685,4.4685,0,0,4.4714,4.4711,4.4713,4.4711,4.4709,4.4711,4.4702,4.4704,4.4704,4.4695,4.4697,4.4695,4.4692,4.4696,4.4697,4.4694,4.4706,4.4701,4.4702,4.4702,4.4704,4.4706,4.4708,4.4685,4.4685,4.4685,0,0,4.4726,4.4724,4.4728,4.4726,4.4724,4.472,4.4721,4.4717,4.4715,4.4717,4.471,4.4711,4.4711,4.4709,4.4708,4.4721,4.4715,4.4721,4.4729,4.4732,4.4734,4.4735,4.4739,4.4741,4.4721,4.4721,4.4721,0,4.4734,4.4736,4.473,4.4733,4.4732,4.4724,4.4728,4.4727,4.4724,4.4724,4.472,4.472,4.4717,4.4721,4.4724,4.4724,4.4725,4.4721,4.4734,4.4735,4.4736,4.474,4.4742,4.4722,4.4722,4.4722,4.4722,0,4.4745,4.4747,4.475,4.4748,4.4748,4.4751,4.4746,4.4747,4.4743,4.474,4.4743,4.474,4.4738,4.4739,4.4735,4.4743,4.474,4.4735,4.4728,4.4739,4.4743,4.4744,4.4723,4.4723,4.4723,4.4722,0,0,4.4763,4.4759,4.476,4.4759,4.4756,4.4757,4.476,4.476,4.476,4.4759,4.4761,4.4762,4.4757,4.4756,4.4752,4.4755,4.4765,4.4749,4.4749,4.4752,4.4773,4.4777,4.4778,4.4761,4.4762,4.4762,4.4773,0,4.4773,4.4778,4.4774,4.4779,4.4781,4.4774,4.4777,4.4775,4.4772,4.4773,4.477,4.4771,4.4765,4.4764,4.4767,4.4763,4.4769,4.4762,4.4763,4.4763,4.4763,4.478,4.4784,4.4795,4.4775,4.4775,4.4775,0,4.4786,4.4786,4.4792,4.4789,4.479,4.4792,4.4792,4.4793,4.4791,4.4789,4.4788,4.4783,4.4786,4.4779,4.4783,4.4778,4.4779,4.4777,4.4777,4.4777,4.4769,4.478,4.4798,4.48,4.4777,4.4777,4.4777,0,4.4798,4.48,4.4803,4.4803,4.48,4.4802,4.4801,4.4799,4.4799,4.4798,4.4798,4.4798,4.4798,4.4798,4.4793,4.4789,4.4797,4.479,4.4795,4.4795,4.4797,4.4797,4.4815,4.4798,4.4798,4.4798,4.4798,0,4.481,4.4814,4.4809,4.4811,4.4815,4.481,4.4815,4.4813,4.4811,4.4813,4.4807,4.4809,4.4803,4.4804,4.48,4.4803,4.4803,4.4802,4.4801,4.4802,4.4802,4.4801,4.48,4.4798,4.4798,4.4798,4.4798,0,4.4824,4.4821,4.4824,4.4821,4.4821,4.4824,4.4822,4.4824,4.4821,4.4823,4.4823,4.4819,4.482,4.4816,4.4816,4.4814,4.4819,4.4816,4.4819,4.4819,4.4824,4.4823,4.4842,4.4844,4.4826,4.4826,4.4826,0,4.4832,4.4835,4.4832,4.4833,4.4833,4.4834,4.4835,4.483,4.4831,4.483,4.4832,4.4832,4.4833,4.4835,4.4831,4.4832,4.4829,4.4836,4.4829,4.4831,4.4829,4.4829,4.4829,4.4837,4.4837,4.4837,4.4838,0,4.4846,4.4844,4.4845,4.4846,4.4847,4.4847,4.4847,4.4848,4.4843,4.4844,4.4845,4.4846,4.4846,4.4847,4.4847,4.4845,4.4841,4.484,4.4841,4.4842,4.4844,4.4843,4.4823,4.4839,4.4839,4.4839,4.4839,4.4839,4.4857,4.4859,4.4858,4.4859,4.4859,4.4859,4.4861,4.4859,4.486,4.486,4.4858,4.486,4.4858,4.4858,4.4857,4.4858,4.4855,4.4857,4.4857,4.4857,4.4858,4.4844,4.4858,4.4858,4.4858,4.4858,4.4858,0,4.487,4.4869,4.4871,4.4871,4.4872,4.4869,4.4868,4.487,4.4872,4.4871,4.4872,4.4873,4.4874,4.4872,4.4872,4.4874,4.4872,4.4874,4.4874,4.4873,4.4861,4.486,4.4876,4.4876,4.4876,4.4876,4.4876,4.4876,4.4877,4.4881,4.488,4.4884,4.4883,4.4885,4.4885,4.4885,4.4885,4.4887,4.4888,4.4887,4.4885,4.4886,4.4887,4.4886,4.4886,4.4889,4.4887,4.4876,4.4874,4.4873,4.4871,4.4889,4.4889,4.49,4.49,4.49]}]]